Flag for Liberia Weather past 2 weeks in Monrovia, Liberia

Now
82 °F

Partly sunny.


Feels Like: 86 °F
Forecast: N/A
Wind: 9 mph from Southwest

Location: Roberts Field

Current Time: Jul 30, 2015 at 6:22:43 PM

Latest Report: Jul 30, 2015 at 3:00 PM


Visibility: N/A

Pressure: 29.98 "Hg

Humidity: 66%

Dew point: 70 °F

Location of MonroviaLocation

Historic Weather in Monrovia — Graph

°F

Monrovia temperature yesterday

Maximum temperature yesterday: 84 °F (at 12:30 PM)
Minimum temperature yesterday: 70 °F (at 6:30 AM)
Average temperature yesterday: 77 °F

Past Weeks' High & Low Weather Summary

 TemperatureHumidityPressure
High84 °F (Jul 18, 10:30 AM)100% (Jul 16, 6:00 PM)30.04 "Hg (Jul 16, 6:00 PM)
Low70 °F (Jul 29, 6:30 AM)62% (Jul 29, 12:30 PM)29.89 "Hg (Jul 15, 3:30 PM)
Average77 °F89%29.97 "Hg
* Reported Jul 15 3:00 PM — Jul 30 3:00 PM, Monrovia, Weather by CustomWeather, © 2015

Note: Actual official high and low records may vary slightly from our data, if they occured in-between our weather recording intervals... More about our weather records

Advertising

Monrovia weather history for previous 24 hours

 ConditionsComfort  
Time TempWeatherWind HumidityBarometerVisibility
3:00 PM
Thu, Jul 30
82 °FPartly sunny.9 mph66%29.98 "HgN/A
2:30 PM81 °FPartly sunny.8 mph70%29.98 "HgN/A
2:00 PM81 °FPartly sunny.10 mph74%30.01 "HgN/A
1:30 PM81 °FPartly sunny.8 mph74%30.01 "HgN/A
11:00 AM81 °FPartly sunny.13 mph79%30.04 "HgN/A
10:30 AM81 °FPartly sunny.9 mph74%30.01 "HgN/A
10:00 AM81 °FPartly sunny.7 mph79%30.04 "HgN/A
9:00 AM81 °FPartly sunny.10 mph79%30.04 "HgN/A
8:30 AM79 °FPartly sunny.10 mph79%30.04 "HgN/A
7:30 AM73 °FPassing clouds.No wind94%30.01 "HgN/A
6:30 AM73 °FPassing clouds.No wind94%30.01 "HgN/A
6:00 AM72 °FPassing clouds.No wind94%30.01 "HgN/A
5:30 AM72 °FRain. Passing clouds.No wind94%29.98 "HgN/A
5:00 AM72 °FMild.No wind94%29.98 "HgN/A
3:30 AM72 °FPartly cloudy.5 mph94%29.98 "HgN/A
3:00 AM72 °FPassing clouds.No wind94%30.01 "HgN/A
2:30 AM72 °FPassing clouds.No wind94%30.01 "HgN/A
2:00 AM72 °FPassing clouds.No wind94%30.01 "HgN/A
1:30 AM72 °FPassing clouds.No wind94%30.01 "HgN/A
1:00 AM72 °FPassing clouds.No wind94%30.04 "HgN/A
12:30 AM72 °FPassing clouds.No wind94%30.04 "HgN/A
12:00 AM72 °FPassing clouds.No wind94%30.04 "HgN/A
11:30 PM
Wed, Jul 29
72 °FPassing clouds.No wind94%30.04 "HgN/A
11:00 PM72 °FPassing clouds.No wind94%30.04 "HgN/A
10:30 PM72 °FPassing clouds.No wind94%30.04 "HgN/A
10:00 PM72 °FPassing clouds.No wind94%30.01 "HgN/A
9:30 PM72 °FPassing clouds.No wind94%30.01 "HgN/A
8:30 PM73 °FPassing clouds.No wind83%29.98 "HgN/A
8:00 PM73 °FPassing clouds.No wind89%29.98 "HgN/A
7:30 PM75 °FPassing clouds.No wind83%29.98 "HgN/A
7:00 PM77 °FPassing clouds.5 mph79%29.98 "HgN/A
6:30 PM79 °FScattered clouds.8 mph74%29.98 "HgN/A
6:00 PM81 °FScattered clouds.9 mph70%29.95 "HgN/A
Weather by CustomWeather, © 2015

See weather overviewHow to use our weather pages